Погода в Вяземском

Россия / Хабаровский край     47°32′07″N   134°45′19″E
темп.,
°C
ветер,
м/с
пор.,
м/с
влажн.,
%
обл.,
%
осадки,
мм/ч
давл.,
гПа
погр.,
м
4 марта, чт
чт401:00−8ююв3494100 0.3 101998
04:00−6юв3594100 0.4 1016133
07:00−7ююв3391100 0.0 101585
10:00−1ююз6148793 0.1 1015716
13:00+1юз51197100 0.1 1014745
16:00+1ююз2898100 0.1 1012493
19:000ююз2699100 0.9 1011303
22:00−1ююз2599100 2.2 1011193
5 марта, пт
пт501:000зюз3898100 0.9 1010359
04:000зюз3998100 1.1 1009445
07:000зюз4998100 0.9 1009569
10:00−5зсз6996100 3.6 1011530
13:00−10з81291100 1.6 1015596
16:00−12з8127767 1.6 1019947
19:00−18зюз713780 0.0 1024694
22:00−22зюз613850 0.0 1027530
6 марта, сб
сб601:00−23зюз612873 0.0 1030430
04:00−24юз511902 0.0 1032303
07:00−24юз410910 0.0 1033238
10:00−20зюз59860 0.0 1034586
13:00−16зюз698251 0.0 1033836
16:00−14з6108273 0.1 1032828
19:00−17юз478726 0.0 1031166
22:00−17юз489214 0.0 1032180
7 марта, вс
вс701:00−17юз499186 0.0 1031208
04:00−19ююз369444 0.0 1031133
07:00−19ююз369233 0.0 1031112
10:00−14юз378167 0.0 1030429
13:00−10зюз4671100 0.0 1028843
16:00−8зюз3471100 0.0 1026827
19:00−11з1288100 0.0 102521
22:00−13юз229598 0.0 102632
8 марта, пн
пн801:00−15юз239579 0.0 102628
04:00−16юз349249 0.0 102682
07:00−17юз47930 0.0 1027141
10:00−13юз47880 0.0 1028358
13:00−9зюз59830 0.0 1028603
16:00−8зюз510830 0.0 1027572
19:00−11юз33870 0.0 102630
22:00−11ю34830 0.0 102751